Theta_e
350 343 343 342 341 341 346 345 340 336 339 338 336 337 334 331 326 323 324 325 326 331 333 331 336 337 340 342 340 343 340 344 353 347 341 342 339 341 342 343 344 345 345 344 345 345 345 346 347 348 348 347 347 347 346 346 345 345 345 345 345 345 344 343 343 343 343 343 343 343 343 343 343 343
350 346 345 343 342 344 344 342 345 339 339 344 342 340 335 335 331 329 325 325 330 330 334 335 336 338 340 342 342 342 341 348 354 344 340 339 341 345 341 341 342 344 344 343 342 343 344 344 344 346 346 346 345 344 344 343 343 344 343 343 343 343 343 342 342 342 342 342 342 342 342 342 341 341
351 347 345 344 343 343 343 343 342 348 339 341 344 342 341 338 334 335 330 326 333 335 333 339 339 338 341 342 342 345 342 350 350 342 340 338 342 347 344 342 342 342 343 342 342 342 341 340 341 342 342 343 342 342 342 342 342 342 343 343 343 343 343 342 340 340 340 339 339 339 340 339 340 340
352 348 346 344 343 343 342 342 343 342 344 342 340 343 342 341 337 337 333 328 329 336 334 337 338 340 340 340 340 341 343 349 351 341 340 340 350 347 343 344 342 341 341 342 341 340 338 337 338 340 341 342 341 341 342 342 342 342 341 341 340 340 339 338 337 337 338 338 338 338 338 338 338 338
352 349 348 346 345 344 343 341 343 344 345 343 341 343 341 340 341 336 334 331 332 336 338 338 337 339 339 338 338 338 341 341 344 344 340 345 343 342 340 341 342 340 339 339 339 338 337 337 337 338 339 340 341 342 342 342 340 339 339 338 337 338 337 337 337 335 335 335 335 335 336 336 336 336
353 350 347 348 347 345 343 342 341 343 345 342 340 340 342 340 341 339 335 333 332 331 335 335 337 337 339 337 341 337 339 337 339 337 337 344 342 340 340 338 339 339 339 337 337 337 336 336 336 337 337 339 340 340 340 339 337 337 337 337 335 335 334 334 333 332 332 332 333 333 332 332 332 332
352 350 349 348 349 349 344 343 342 343 342 343 340 339 341 340 341 341 338 334 333 333 335 334 336 337 338 335 337 339 339 339 337 334 334 341 342 341 338 338 339 338 337 336 335 336 336 336 335 335 335 336 337 337 336 334 334 334 333 332 332 333 333 331 329 329 330 330 330 330 330 330 330 330
352 350 349 349 349 349 345 344 343 342 341 340 341 340 339 340 340 341 340 338 334 334 334 337 334 335 335 336 336 340 341 338 337 335 334 336 340 341 342 339 338 340 337 335 334 335 335 334 333 332 332 332 332 332 332 331 331 329 330 329 329 329 327 324 324 327 327 327 327 327 327 328 329 328
354 352 350 350 349 349 346 344 344 342 340 341 340 340 339 339 340 342 341 339 337 335 333 335 337 337 336 336 337 337 338 338 339 337 335 334 334 337 340 342 342 340 337 336 335 333 333 334 333 332 331 330 330 330 330 330 328 328 327 324 324 326 324 323 323 324 324 324 323 324 326 326 326 326
355 354 351 351 350 348 347 345 345 344 341 341 340 340 339 339 339 340 341 339 339 338 336 334 336 336 335 334 335 336 337 336 336 338 337 336 336 335 338 340 342 342 342 339 336 334 333 332 332 332 331 330 328 328 328 329 328 325 323 320 321 325 322 320 321 321 320 320 320 320 322 324 324 324
356 356 354 352 351 349 348 347 346 345 343 342 340 341 340 340 339 338 340 340 338 337 337 337 338 335 337 336 332 336 337 336 335 334 335 335 338 338 337 338 340 341 342 339 337 336 335 334 332 328 327 329 329 328 326 326 324 323 321 318 318 318 318 319 319 318 318 320 319 319 319 317 320 322
357 357 356 354 352 351 349 348 347 346 344 343 341 341 342 340 339 338 338 340 338 337 335 336 336 337 334 335 335 338 337 334 334 335 334 333 334 336 338 339 339 340 340 337 337 336 335 334 333 330 329 329 328 326 326 328 328 325 321 320 324 323 319 319 318 318 317 317 317 318 318 318 318 319
357 357 357 356 354 353 348 342 343 343 342 345 341 340 341 341 340 339 338 339 339 337 335 334 335 335 335 333 334 335 334 333 333 335 335 333 334 336 336 338 340 342 340 339 338 336 336 334 334 334 332 332 331 329 330 330 332 326 321 322 325 325 321 319 319 318 317 316 316 315 317 317 316 316
356 357 357 357 346 342 339 338 337 338 337 338 343 342 340 341 340 339 337 337 339 337 335 334 333 333 334 335 333 335 335 336 334 334 335 333 334 335 336 337 340 344 342 339 336 337 340 336 333 332 332 334 340 333 329 328 330 327 324 324 325 324 323 320 318 316 316 315 315 315 314 314 315 315
355 356 357 357 351 342 339 341 334 336 335 335 337 338 338 339 342 339 338 337 338 338 337 336 334 333 333 335 336 334 335 336 335 335 335 334 333 333 332 331 333 345 343 339 336 335 338 335 330 329 329 329 332 335 332 329 330 327 325 325 325 324 324 322 320 318 316 316 316 315 314 314 314 314
355 355 356 356 357 354 351 350 344 337 334 333 333 335 334 335 337 339 340 339 337 337 337 336 335 335 334 334 336 336 334 335 335 335 336 334 333 332 331 331 331 337 344 338 334 333 336 335 331 329 330 330 330 331 331 330 327 325 325 325 324 323 322 322 322 321 319 319 319 319 318 317 317 316
356 355 355 355 356 357 341 346 350 347 343 331 330 332 334 333 333 334 336 338 341 340 338 337 337 337 336 334 335 338 337 337 335 335 335 336 335 335 333 333 333 337 343 337 332 330 332 333 332 328 329 330 331 330 328 329 328 326 325 323 322 322 321 320 320 321 320 319 317 315 315 316 316 315
357 356 355 354 354 356 354 351 350 350 348 345 340 337 339 340 338 332 333 334 336 342 340 339 337 339 340 337 337 340 340 337 335 336 335 336 336 335 335 337 336 338 342 336 332 328 330 332 329 326 326 328 329 326 326 327 327 324 322 321 321 320 320 320 319 319 318 318 317 316 313 312 311 312
357 357 357 355 355 355 355 354 350 351 349 347 344 341 340 341 341 340 340 340 341 341 342 341 340 340 341 341 340 341 341 340 339 339 338 338 338 338 339 337 338 337 339 337 332 327 329 330 326 324 324 325 325 324 324 326 325 322 321 320 320 319 319 319 319 317 316 316 315 315 313 312 311 310
358 358 357 356 355 355 355 345 332 340 351 349 346 343 342 342 342 342 337 335 338 343 344 343 342 342 342 339 343 343 342 341 341 342 343 340 338 336 334 333 335 334 336 335 331 326 325 329 326 323 324 324 323 325 322 322 323 322 320 320 319 317 316 317 317 317 316 316 315 314 313 310 309 309
356 358 358 356 356 355 355 342 330 331 336 350 347 345 343 343 342 342 343 333 330 332 332 333 335 335 333 332 331 331 334 340 340 339 337 335 337 334 331 331 331 331 333 333 332 327 323 325 323 322 321 320 321 324 321 321 322 322 320 319 318 315 313 314 315 315 316 315 315 314 313 311 309 310
356 357 348 356 357 355 355 336 327 327 334 348 348 347 344 342 341 342 344 344 339 329 329 331 332 332 332 332 332 332 331 332 337 339 334 336 337 333 332 329 330 330 331 333 331 324 323 324 322 319 322 322 321 318 318 320 320 321 318 317 316 314 314 312 312 314 314 314 314 313 312 310 310 310
357 357 352 343 344 349 348 333 326 324 330 348 349 348 346 343 342 343 344 343 342 339 336 337 337 338 336 339 339 339 332 334 343 341 339 338 336 333 332 331 329 325 326 331 331 325 322 322 320 318 315 313 315 319 317 321 320 318 319 316 315 314 314 312 311 309 311 312 312 312 311 310 309 312
356 356 356 349 329 327 329 327 323 321 321 344 350 350 347 345 343 346 345 344 344 342 339 338 339 339 341 341 341 342 339 337 343 340 339 338 337 334 332 331 329 326 326 329 332 326 323 322 318 317 315 311 309 315 321 319 319 317 315 314 313 315 316 315 313 311 310 309 309 310 310 309 309 310
355 355 356 356 338 326 323 321 320 317 317 325 348 350 349 348 347 342 345 343 337 342 341 339 339 339 340 340 339 340 340 338 340 340 337 339 338 335 333 331 329 328 325 328 332 327 320 320 318 316 314 313 313 313 313 314 320 318 318 315 314 315 315 315 315 314 312 310 309 308 308 308 308 310
356 356 357 356 344 329 322 319 319 317 315 317 337 348 334 333 332 344 346 346 343 341 341 339 338 338 337 337 337 338 339 338 339 340 339 338 338 337 336 333 329 326 322 328 329 327 321 317 318 315 314 312 313 312 311 312 316 317 318 316 314 313 319 317 317 315 315 315 316 312 311 310 309 309
357 358 358 356 341 328 321 316 316 317 317 315 326 324 326 326 326 333 344 342 343 342 340 339 337 336 336 335 335 335 336 338 338 339 339 339 338 337 336 335 333 330 325 327 332 327 322 317 320 315 313 313 311 312 311 309 309 316 316 316 317 315 316 312 312 314 314 314 318 315 311 309 310 310
358 358 358 352 334 325 319 316 315 317 317 326 318 316 320 323 326 338 340 339 341 341 340 338 337 337 337 336 335 335 336 337 338 339 339 339 338 335 332 333 334 326 324 327 329 325 321 318 319 317 316 313 311 309 308 311 314 310 309 314 315 313 313 316 312 317 319 316 315 314 314 314 317 315
357 342 334 331 326 325 322 320 318 317 316 316 318 317 318 322 339 338 338 339 340 340 340 339 338 338 337 337 336 336 336 336 337 337 338 338 335 330 329 328 327 325 326 327 326 323 321 319 317 318 317 315 312 312 310 308 309 308 310 309 306 308 315 315 314 312 313 312 312 312 314 315 314 317
320 317 319 321 321 321 327 335 335 335 336 320 317 317 320 329 337 337 336 337 338 340 341 340 338 339 339 338 337 336 336 334 334 335 335 332 328 325 324 322 321 322 323 324 323 323 320 319 319 318 316 316 315 313 311 309 308 308 313 310 308 314 314 311 309 308 313 310 311 312 315 317 315 316
333 334 333 334 324 322 320 321 320 323 325 327 326 325 327 330 335 337 335 336 338 340 342 341 341 341 340 339 335 334 334 333 334 335 333 331 328 324 322 320 318 317 319 322 323 322 320 320 320 319 316 316 316 313 312 311 307 307 309 311 312 304 306 310 311 311 311 313 314 314 317 316 315 322
332 334 326 329 338 341 343 344 342 338 334 331 331 332 331 331 333 333 329 330 338 342 344 345 344 340 336 335 335 334 333 333 333 333 332 330 327 323 321 318 316 316 317 319 321 324 326 320 320 319 318 317 314 313 312 310 308 307 307 311 313 309 311 309 309 308 310 309 311 312 313 312 312 313
332 333 333 334 335 337 338 340 343 344 343 339 336 334 335 334 334 335 336 336 337 339 341 341 338 333 334 334 334 333 332 332 332 332 331 329 327 322 320 319 317 316 316 316 318 320 321 321 323 320 318 317 317 315 312 308 309 308 308 308 310 309 309 310 309 310 310 312 311 310 309 312 313 313
329 331 332 333 335 336 337 338 339 341 343 343 342 340 329 334 335 335 335 337 339 339 339 340 336 333 333 332 332 332 331 332 332 330 327 327 325 321 319 318 317 318 317 316 317 318 320 320 320 320 320 319 319 316 314 311 308 309 309 308 308 307 309 311 310 310 311 311 310 309 308 307 310 311
327 330 331 332 334 335 337 337 339 340 341 341 341 341 341 340 336 333 335 337 337 337 338 337 335 333 332 332 332 331 330 330 330 329 326 326 323 321 320 319 317 317 317 317 317 319 319 318 317 317 316 316 315 316 320 314 310 308 309 308 309 308 309 312 313 312 311 313 308 307 307 308 309 311
325 327 329 331 333 334 335 336 338 339 341 342 342 342 342 341 341 339 337 337 337 337 338 336 332 333 332 332 331 331 329 328 329 327 324 323 321 321 320 320 319 318 319 318 319 320 320 318 317 315 312 311 310 308 310 319 316 311 309 308 309 309 311 311 314 312 310 308 309 305 304 305 307 311
319 321 323 324 326 327 328 331 332 334 335 337 339 341 341 342 342 343 343 337 337 336 337 335 333 332 332 331 330 328 328 327 327 324 323 322 321 321 319 319 319 319 319 319 321 321 320 318 318 315 312 310 307 306 307 312 315 315 312 310 309 311 311 311 311 310 309 307 307 308 307 308 308 309
318 317 319 321 322 323 324 325 327 328 330 331 332 334 337 340 342 343 345 343 339 335 335 334 333 332 333 331 331 330 329 328 326 323 321 321 319 319 318 318 318 319 319 320 320 321 321 319 317 315 313 309 307 306 305 307 312 312 313 313 310 311 313 311 309 308 307 308 308 307 308 307 308 309
318 319 320 321 322 323 323 324 325 326 327 328 329 329 330 332 335 338 339 339 340 339 337 335 334 332 331 332 330 329 328 326 323 321 320 320 319 319 318 318 318 319 319 319 320 320 319 318 317 315 313 310 308 308 308 307 309 315 313 310 312 311 312 310 308 306 305 305 308 309 311 312 312 314
320 321 321 322 323 324 325 326 326 327 327 328 328 329 329 329 330 331 333 333 334 335 335 333 332 329 332 332 330 330 329 326 323 322 320 319 319 319 319 319 318 319 318 318 318 318 318 317 316 315 314 313 313 312 311 310 309 311 312 310 308 312 313 312 309 307 307 307 307 306 306 306 307 306
322 322 323 323 324 325 326 327 328 329 329 329 330 325 330 331 332 332 333 334 333 334 334 334 333 332 332 332 331 329 326 323 322 321 319 318 317 318 318 317 319 319 318 317 318 318 318 318 320 318 319 314 314 309 306 303 304 304 305 309 307 308 310 314 315 310 309 307 307 306 305 305 304 304
323 325 326 326 327 328 329 329 330 330 330 330 330 330 330 330 331 324 329 328 331 332 332 332 332 331 331 329 323 319 319 319 320 318 318 318 318 317 317 318 318 319 318 317 318 318 320 320 322 320 316 312 309 306 304 304 303 304 304 306 309 308 308 309 313 314 313 309 306 307 305 304 305 303
325 327 328 328 329 329 329 329 329 329 329 329 330 330 330 330 330 328 327 328 326 322 321 321 322 322 322 322 322 320 319 318 318 318 318 318 318 317 317 318 318 319 319 319 319 319 318 318 318 316 313 311 309 308 305 305 305 304 304 305 305 308 311 310 308 309 311 313 312 311 310 306 301 299
325 327 328 329 329 328 328 329 328 328 327 328 327 327 326 324 322 322 322 321 321 320 321 321 321 321 321 321 321 320 320 319 320 319 318 318 318 318 318 318 318 319 319 318 317 316 317 316 316 314 311 309 309 307 306 306 305 306 304 305 308 307 308 311 311 308 308 309 310 311 311 311 311 310
325 326 327 328 328 329 328 329 328 328 327 325 323 322 321 322 322 322 322 322 321 322 321 321 321 321 321 321 321 319 320 316 318 319 319 319 318 318 318 319 318 318 317 316 314 313 313 314 313 313 311 310 310 309 309 309 307 306 306 305 305 306 307 308 307 307 308 307 309 310 310 310 311 311
Wind_Speed
6 6 6 6 6 6 4 3 5 6 6 6 6 7 8 7 6 4 4 4 5 4 5 3 4 5 5 7 6 7 7 8 9 7 6 7 6 11 14 14 13 13 13 13 13 12 11 9 7 6 6 6 7 7 7 8 9 9 9 9 10 10 9 8 6 6 5 5 5 5 6 7 7 8
6 6 7 6 6 5 4 6 4 5 6 7 7 6 6 7 8 6 6 6 4 3 2 3 3 3 4 6 6 5 6 9 9 6 7 7 6 10 14 13 13 13 13 13 12 12 9 8 7 7 6 7 6 7 8 9 9 9 8 8 8 8 8 6 5 5 5 4 4 4 5 6 6 7
7 6 8 7 7 6 5 4 3 4 6 6 7 7 6 6 7 7 5 3 4 5 3 2 3 7 5 6 6 5 6 7 8 7 6 7 8 10 9 14 13 13 12 12 11 10 10 9 8 8 7 7 6 8 9 10 9 8 7 6 6 6 6 4 3 4 4 4 4 4 5 5 6 6
7 7 7 8 8 7 5 5 5 4 5 6 6 6 7 6 6 7 6 6 5 4 4 4 4 7 7 7 7 6 4 6 11 6 6 6 8 7 5 9 12 12 11 11 11 11 11 10 10 9 8 8 9 10 10 9 8 6 5 4 4 4 4 2 3 3 3 4 4 5 5 5 6 6
8 8 7 7 8 7 7 7 6 4 5 5 6 6 6 7 6 7 6 6 5 3 2 4 5 6 6 6 6 6 6 5 6 6 5 6 5 5 6 6 10 12 12 12 12 11 11 11 11 10 9 9 10 10 9 7 6 4 3 3 2 4 4 3 2 2 3 4 5 5 5 5 6 6
9 8 9 7 8 8 8 7 7 6 5 6 6 6 7 7 7 7 7 7 6 7 2 3 3 6 5 7 4 7 7 7 5 6 5 4 5 6 6 6 6 12 12 13 13 12 12 12 10 10 10 10 9 9 8 7 6 4 3 3 4 4 3 2 1 2 4 5 5 5 5 5 5 5
10 9 9 10 8 7 9 9 9 7 6 6 7 8 6 7 7 7 7 7 7 7 6 5 6 6 6 7 7 6 7 7 7 7 6 6 5 5 6 6 5 10 13 14 14 13 12 11 11 11 11 10 10 9 8 7 5 4 4 4 4 4 3 2 3 4 5 4 5 5 5 5 5 5
11 12 11 11 11 9 10 10 9 9 8 7 7 8 7 7 8 7 7 8 7 7 7 5 7 6 7 6 5 6 6 7 7 7 6 5 6 6 6 6 6 7 13 14 14 14 12 12 12 12 11 11 10 9 8 7 6 5 5 4 4 5 4 3 4 5 5 4 5 5 5 5 5 5
13 13 13 12 12 11 11 10 10 10 12 10 8 9 8 9 8 6 8 8 7 7 9 7 5 5 6 6 6 7 7 5 6 5 7 7 7 6 6 6 7 8 12 13 15 14 14 14 13 13 12 11 10 9 8 7 7 6 6 6 6 6 5 4 4 5 6 5 5 6 6 5 5 6
13 13 14 13 13 13 13 13 12 12 13 12 11 10 10 9 8 8 7 8 8 8 8 8 6 5 6 4 5 7 8 8 6 6 6 4 5 6 5 6 5 5 4 4 6 9 10 11 12 13 12 10 10 10 9 8 9 7 7 8 7 6 5 5 6 7 7 6 5 5 5 6 6 6
13 14 13 13 13 14 14 14 13 13 12 12 13 12 11 10 9 10 9 8 9 9 8 7 7 7 6 6 7 6 7 8 8 8 6 7 6 6 7 7 5 4 4 5 9 9 9 10 9 11 13 11 11 11 10 10 10 7 9 9 8 7 6 7 7 8 7 4 5 6 7 7 6 6
14 15 14 14 15 15 15 14 13 13 12 10 11 11 9 10 11 11 9 8 9 9 9 9 8 7 8 4 4 4 6 6 5 7 8 9 7 7 6 7 7 5 5 5 5 6 7 8 10 11 10 11 12 10 9 11 9 9 10 9 8 8 8 7 7 7 6 5 5 6 7 7 6 6
15 14 14 14 15 16 18 20 17 16 14 11 12 11 10 11 12 11 10 9 9 9 9 9 7 7 7 8 7 8 9 12 14 8 7 8 7 7 6 6 6 6 6 5 6 6 6 6 6 6 6 7 9 9 12 9 10 11 11 10 10 9 9 8 8 8 7 7 6 7 8 8 7 8
15 16 15 15 20 20 21 20 20 20 20 20 16 14 13 13 12 12 12 11 11 11 11 11 11 10 11 11 11 11 12 10 5 6 8 9 7 5 7 6 6 7 7 6 6 6 5 6 6 5 7 5 6 5 6 6 7 10 12 11 11 10 9 9 8 8 8 8 8 8 8 8 8 9
15 15 15 14 16 18 18 18 21 21 21 21 21 20 19 17 15 13 13 13 12 12 13 11 11 13 13 13 11 12 10 8 11 11 9 9 7 8 7 8 2 5 9 7 6 7 6 6 6 5 5 5 4 5 6 9 12 12 13 13 12 11 10 9 9 8 9 9 9 9 9 9 9 9
13 14 14 13 12 13 16 16 16 20 22 22 23 22 21 21 21 19 16 15 13 13 12 12 14 13 14 13 11 11 9 10 9 9 9 10 10 9 9 7 8 5 9 7 7 8 5 5 6 6 5 5 4 6 9 12 13 12 13 13 13 12 11 10 9 10 10 10 10 11 10 9 9 9
14 13 13 13 12 12 19 17 15 15 17 20 23 24 23 22 23 21 21 20 18 15 14 14 14 15 14 13 13 13 13 10 11 9 10 10 10 10 11 10 9 5 10 7 7 8 6 6 7 6 6 5 5 6 9 12 13 15 15 14 14 13 12 11 11 11 11 11 11 11 11 10 10 10
14 14 13 13 13 13 13 13 15 14 15 15 15 16 16 16 19 21 23 23 22 19 16 16 17 16 13 15 14 14 12 13 14 12 13 12 12 11 13 13 10 6 9 11 7 5 6 6 6 7 6 6 5 6 10 15 16 15 15 15 14 13 13 13 13 13 12 11 11 11 12 12 11 11
14 14 14 14 14 13 14 12 15 15 15 14 14 16 17 17 16 17 18 18 16 16 15 16 17 16 15 15 13 12 13 16 14 15 16 16 15 12 8 4 5 6 9 10 8 9 6 6 6 7 6 5 6 5 8 14 15 15 16 16 15 14 14 15 14 12 12 12 11 12 13 12 12 12
12 13 14 13 14 14 14 15 18 18 15 14 16 17 17 16 16 17 20 22 21 20 18 16 16 15 15 16 14 14 14 13 12 10 9 7 7 8 9 10 7 8 7 10 10 6 5 6 7 6 6 5 6 5 6 11 15 15 15 15 14 15 16 15 13 12 12 12 12 12 13 13 13 12
12 12 13 14 13 14 14 15 18 20 19 15 17 16 16 16 16 18 16 19 23 24 23 23 22 20 18 18 19 19 21 16 13 10 10 12 11 11 11 10 9 10 9 9 10 7 5 5 7 6 4 5 5 5 6 7 11 15 15 14 15 16 16 14 13 13 12 12 12 12 13 13 13 9
11 13 17 16 14 14 14 16 18 19 19 17 17 16 16 17 19 20 15 11 14 22 23 23 22 20 19 19 21 21 21 22 17 14 16 15 13 14 13 12 11 8 9 11 10 8 7 6 6 6 2 2 2 5 6 6 8 12 10 13 16 17 15 13 12 12 13 12 12 13 14 14 9 5
12 12 13 17 16 14 16 18 18 20 19 17 17 17 16 18 21 22 14 15 15 13 14 15 14 14 17 17 16 17 23 24 21 18 16 12 14 14 13 11 8 7 8 10 12 10 6 8 6 7 3 3 4 3 5 6 6 6 7 9 11 12 11 13 13 13 13 12 13 14 15 14 5 5
12 12 12 13 16 19 19 17 18 20 22 19 17 15 16 19 24 16 12 17 15 13 14 17 17 18 15 14 14 14 15 16 19 18 15 14 14 13 12 12 13 13 10 8 14 11 6 8 7 6 7 5 4 3 3 3 4 5 6 6 5 9 13 13 10 13 13 13 14 15 16 12 7 6
12 12 11 11 15 17 18 18 18 18 22 23 18 17 19 22 20 10 13 15 17 14 13 14 15 14 14 14 13 13 14 14 14 14 13 13 13 13 12 12 11 10 6 9 18 9 7 8 8 7 5 5 4 3 2 3 4 6 6 7 7 8 5 7 5 6 8 13 14 15 13 12 11 9
12 12 11 11 15 18 18 19 20 21 19 23 17 21 26 25 18 13 13 12 11 13 13 13 14 14 14 14 14 14 13 13 14 13 12 13 13 13 13 14 13 11 9 10 21 12 8 7 10 10 6 6 4 5 3 2 2 5 5 6 7 7 6 5 5 5 5 5 6 6 9 13 13 15
14 13 13 13 16 16 17 18 20 21 24 18 19 26 24 23 16 5 4 5 11 14 15 15 15 16 16 15 15 15 14 13 12 12 13 14 14 12 11 11 11 12 8 10 14 12 10 7 8 11 9 8 6 5 5 5 2 1 0 3 4 6 6 6 4 5 4 5 6 7 8 9 10 10
14 12 10 12 17 18 20 21 21 22 22 18 22 24 26 19 11 2 8 14 15 15 15 16 17 17 16 16 16 16 14 13 14 14 14 14 13 11 9 9 8 8 10 13 13 11 10 9 9 8 10 9 8 7 6 3 3 4 3 1 1 3 3 4 4 3 2 2 3 4 3 5 4 1
13 14 19 20 19 20 21 22 22 20 22 25 23 25 26 20 9 14 14 15 15 16 19 18 18 18 18 19 18 16 16 15 12 12 10 10 8 7 8 8 9 10 9 11 11 10 10 11 10 8 6 7 7 6 6 5 6 5 4 2 2 2 2 1 1 1 3 3 4 6 6 6 3 4
16 15 14 14 15 17 18 15 12 12 14 19 23 24 22 12 13 15 14 14 16 18 19 18 17 18 15 14 14 13 13 14 16 14 12 10 9 9 9 8 6 8 9 11 11 11 9 9 10 10 8 6 6 7 6 6 4 4 4 4 5 2 3 4 4 3 3 4 6 6 6 4 6 4
13 13 10 8 9 9 13 12 12 11 11 8 8 9 10 10 11 13 15 16 17 20 19 19 18 17 13 7 5 10 13 15 12 12 12 12 12 11 10 11 8 7 6 8 10 11 10 9 9 10 9 6 5 6 6 6 6 5 5 5 6 5 3 1 1 3 3 5 4 4 4 4 3 3
8 10 11 12 11 10 10 10 8 9 8 8 8 8 8 10 12 15 20 20 17 18 18 17 16 7 2 8 11 11 11 12 11 11 12 13 12 11 11 10 11 9 9 8 8 7 9 8 9 9 9 8 8 6 5 7 7 7 6 6 6 6 5 5 6 5 4 3 3 5 4 4 3 3
4 5 6 7 8 9 11 12 13 13 12 11 10 11 10 10 11 11 11 14 17 18 17 18 11 5 7 7 7 9 11 12 12 12 13 13 14 12 12 15 13 13 14 12 10 8 7 7 8 10 8 8 8 8 8 6 6 6 7 6 6 6 4 6 6 6 4 1 5 6 4 4 5 4
3 5 6 6 7 8 8 10 11 12 12 12 12 11 12 12 12 12 13 15 17 17 18 17 12 11 10 11 11 13 14 14 15 18 19 16 15 16 15 15 14 12 12 12 11 10 8 8 6 4 5 6 4 7 9 8 7 7 7 6 6 6 6 6 5 5 4 5 6 4 2 3 4 4
3 5 6 7 7 8 8 10 11 12 12 13 13 13 12 12 14 15 15 16 16 16 16 12 8 10 13 15 15 16 18 18 17 14 14 14 15 16 17 16 14 14 14 13 12 10 9 9 8 5 2 2 2 4 4 6 7 6 5 5 6 7 7 6 5 5 4 6 3 2 2 2 5 6
3 4 5 6 6 7 9 10 10 11 12 12 13 13 13 14 14 14 15 15 13 14 14 11 10 11 13 15 18 18 18 18 17 17 18 16 16 15 14 13 12 12 12 14 13 11 11 10 10 10 10 8 7 7 8 9 10 7 7 5 5 6 6 5 4 4 5 5 5 3 2 5 6 7
1 2 3 5 5 6 8 9 10 11 12 13 13 13 13 14 14 14 15 13 12 13 14 12 12 12 12 10 11 14 15 16 17 17 18 17 16 16 15 13 15 15 15 13 13 12 11 11 10 10 10 9 10 11 8 1 11 12 8 7 5 6 6 4 4 3 6 6 4 5 5 4 5 7
1 3 4 5 5 6 7 8 9 10 10 12 12 13 13 14 14 14 14 12 11 10 12 12 13 14 17 19 19 19 19 19 19 19 17 16 17 16 16 17 14 14 13 11 11 11 10 10 10 12 11 12 11 9 7 3 1 6 13 10 8 7 6 5 4 6 6 3 7 6 3 3 7 7
2 4 5 6 7 7 8 9 9 10 11 10 11 12 13 13 13 13 12 12 12 13 13 15 16 17 18 18 16 17 16 15 14 15 17 18 19 19 17 15 13 10 10 7 6 8 8 9 12 12 12 11 11 11 8 6 6 3 7 19 10 6 6 7 7 6 5 4 5 3 3 4 3 5
5 5 5 6 7 8 8 9 10 10 11 11 11 11 12 12 12 13 13 12 11 10 9 10 11 10 10 10 12 14 17 23 23 19 20 20 19 17 15 13 13 13 11 10 8 6 8 11 12 13 11 10 9 7 7 5 2 0 1 7 13 11 8 7 7 6 3 6 3 2 5 2 4 2
5 5 6 5 7 7 8 9 10 10 10 11 11 11 11 11 12 11 11 11 11 12 12 12 11 12 12 12 13 13 15 15 12 12 10 9 10 11 16 17 13 11 10 7 6 7 11 13 9 11 11 5 5 6 5 4 4 2 3 4 10 13 12 11 9 7 6 4 5 7 6 7 5 2
5 6 6 6 6 8 8 9 10 10 10 10 10 10 10 11 10 14 14 13 12 12 12 11 10 11 12 10 6 7 9 3 8 18 20 18 16 15 16 14 12 10 10 9 10 10 5 6 9 11 6 7 7 7 7 7 5 4 4 3 4 11 16 16 14 12 10 7 5 3 3 3 0 2
5 5 6 6 6 6 7 7 8 9 10 10 10 10 10 10 9 8 7 9 7 4 4 4 3 7 7 1 10 12 15 16 13 12 8 13 18 16 13 13 14 12 10 8 5 4 7 7 8 9 8 8 7 8 7 7 6 5 3 3 4 3 6 13 15 16 15 12 11 10 8 6 4 2
4 5 5 5 6 6 7 7 7 7 8 8 8 7 5 5 5 6 6 6 4 5 7 8 8 11 14 13 9 10 18 18 17 17 14 10 10 11 10 9 9 8 7 6 5 7 6 7 7 8 8 7 6 6 7 5 5 5 6 3 1 1 4 2 1 3 6 10 13 14 11 9 10 10
4 4 5 5 6 6 6 6 6 7 7 7 7 6 4 5 5 5 6 6 6 6 7 8 10 11 13 14 14 12 11 11 12 12 12 12 10 9 8 8 7 7 6 7 8 7 6 7 6 6 7 6 6 7 6 7 6 4 4 3 4 4 3 1 2 4 5 5 10 16 18 16 14 12
Wind_Direction
204 209 203 201 209 226 202 193 223 198 176 184 182 178 168 162 142 178 197 241 218 271 204 168 238 202 177 178 183 176 187 186 184 190 185 188 196 208 211 212 211 213 217 223 228 233 236 239 239 238 235 241 246 252 255 256 259 263 270 276 281 288 296 302 306 304 301 299 299 299 295 296 300 301
206 208 207 204 220 223 221 231 212 215 178 180 182 189 184 161 161 170 179 237 216 244 254 171 186 214 184 173 182 184 193 198 178 185 194 197 200 208 209 210 211 213 218 224 228 232 235 235 230 228 227 228 230 239 247 251 255 259 263 267 272 279 287 297 302 309 309 308 304 299 296 297 297 298
204 209 209 202 212 218 217 229 222 219 177 176 161 174 170 176 164 166 151 179 267 194 205 247 191 171 189 177 173 187 191 191 178 183 194 205 211 210 209 207 206 211 218 225 229 232 231 227 223 221 221 213 216 231 238 244 249 255 258 261 268 275 282 306 323 308 304 303 299 297 298 298 296 297
206 207 207 206 204 213 209 220 229 221 192 174 164 159 165 174 172 159 160 175 235 236 191 194 188 172 172 186 177 196 193 194 181 183 194 205 209 201 196 199 202 211 218 224 227 227 227 224 221 218 210 202 214 225 230 235 241 246 250 259 274 279 281 292 281 286 292 297 297 298 300 301 304 306
202 210 209 206 208 197 202 210 219 213 205 181 176 169 165 176 179 167 174 182 219 284 191 163 176 191 166 194 197 184 191 198 203 194 194 177 173 182 186 190 204 209 216 222 223 224 225 225 222 213 207 209 214 220 225 226 225 219 224 234 226 238 243 235 244 269 291 291 292 294 298 306 312 314
203 201 209 208 206 200 200 201 207 206 201 191 185 187 176 184 191 184 168 194 183 219 268 191 204 181 177 193 204 185 186 203 196 201 195 179 175 184 189 189 201 210 217 220 222 222 223 224 221 213 211 214 215 219 219 217 212 205 204 201 205 210 206 218 261 277 274 275 282 287 291 296 301 305
199 199 204 209 200 197 202 203 205 198 198 195 194 199 189 189 194 194 185 169 197 199 224 191 186 196 187 193 205 200 192 192 189 194 200 187 190 191 191 198 205 205 213 218 223 224 222 219 217 215 214 213 216 218 214 209 203 200 197 193 194 198 181 178 241 259 263 270 276 276 278 280 284 293
197 202 203 208 202 195 201 203 203 202 198 193 200 200 203 194 198 194 192 189 181 193 199 228 195 198 179 216 201 189 186 184 194 200 203 198 192 196 200 202 209 210 211 218 223 225 221 215 217 219 215 212 215 218 212 207 207 202 190 183 188 182 176 206 237 255 262 262 263 269 270 269 274 281
200 201 204 205 202 196 199 203 203 201 202 202 194 202 202 202 201 196 193 195 182 181 200 217 222 187 193 191 191 186 175 199 202 206 204 203 205 206 207 207 211 210 207 214 219 222 220 217 218 220 217 212 215 220 214 209 215 210 182 185 185 183 191 214 235 244 249 247 251 254 262 268 270 272
205 204 205 204 201 201 200 204 204 201 202 201 201 203 204 203 199 201 202 193 194 193 200 197 215 211 188 193 198 195 187 178 188 205 222 226 216 206 217 219 210 208 202 212 226 227 228 228 227 226 225 218 218 222 213 209 216 210 178 182 185 188 189 210 229 240 239 242 251 262 272 274 272 271
209 209 207 206 204 205 206 205 203 201 203 203 205 204 203 200 197 204 203 198 197 200 198 204 202 203 218 187 199 211 192 191 187 186 195 221 222 211 203 216 227 213 199 214 210 207 204 214 218 226 227 225 224 224 216 211 217 196 183 184 190 189 193 210 228 238 242 245 253 261 265 268 274 282
212 211 210 209 206 207 208 208 205 200 204 203 209 206 199 196 198 204 202 199 199 201 204 202 202 202 198 232 211 163 172 197 228 206 186 203 208 214 209 200 198 224 192 197 203 221 220 227 230 237 234 230 233 228 225 224 216 189 186 187 189 193 203 221 237 251 258 247 245 253 261 267 273 276
213 213 214 213 211 209 209 206 204 203 199 197 207 208 199 199 199 202 201 199 198 205 204 212 204 199 205 205 189 186 190 198 206 196 184 206 208 202 206 230 212 197 193 200 191 207 205 218 230 223 228 230 224 225 219 226 210 192 187 189 188 194 205 217 234 249 260 263 250 248 252 258 262 265
214 215 214 216 214 211 208 205 205 204 202 203 203 201 199 201 201 202 199 198 199 199 203 207 199 206 212 206 201 200 205 204 179 166 191 203 205 184 217 229 217 202 195 188 206 218 207 202 220 207 213 225 202 206 199 212 203 195 189 187 190 193 200 216 232 244 256 265 265 253 247 247 252 256
214 216 216 218 216 215 212 209 206 207 205 206 209 207 204 203 199 199 200 204 199 200 206 204 202 209 213 213 205 207 200 192 191 196 189 199 176 191 192 218 265 214 186 197 202 228 219 189 192 202 200 209 208 202 204 205 202 192 184 187 188 190 200 213 226 242 249 255 258 259 252 248 247 250
216 216 217 218 218 214 213 210 210 210 208 207 209 210 208 210 211 205 198 199 203 206 206 204 209 206 213 210 205 208 197 200 199 198 189 193 193 198 204 208 206 210 179 183 198 228 220 180 187 205 219 214 208 202 205 204 197 182 184 186 186 192 201 212 225 233 242 247 255 259 260 254 249 251
217 217 218 220 219 220 210 210 210 209 214 213 211 211 212 213 211 212 213 207 203 200 206 208 211 209 208 206 212 204 201 192 197 192 196 200 201 200 205 214 211 199 179 168 196 215 213 179 193 203 224 216 217 205 203 194 184 184 185 185 189 194 201 211 219 227 232 239 246 254 261 263 263 260
220 218 219 219 221 221 213 210 210 210 211 212 216 218 218 218 218 216 214 213 213 208 208 207 213 214 202 210 207 202 191 187 198 192 202 200 202 200 207 208 201 179 169 181 183 211 218 195 189 209 229 211 204 198 196 188 182 180 183 189 195 197 204 212 219 221 226 235 242 248 254 257 260 261
222 221 221 222 224 220 220 212 206 209 209 209 213 216 219 220 219 218 218 216 213 213 216 215 218 214 207 213 206 200 198 199 200 195 198 196 201 202 202 187 180 174 186 177 165 211 208 188 190 212 215 196 190 195 195 181 175 180 189 195 197 201 207 215 218 220 228 236 241 246 248 252 254 257
227 226 224 224 225 224 223 218 200 205 206 209 214 216 219 221 224 225 220 213 213 214 215 217 218 217 210 207 205 202 201 204 201 200 203 195 189 176 188 203 183 187 196 184 180 196 201 190 189 213 221 177 175 185 181 190 186 189 195 198 199 205 212 216 216 221 230 237 242 247 250 250 252 254
231 229 226 226 229 227 229 218 201 204 200 212 216 218 218 220 224 231 225 216 217 219 219 219 220 217 209 205 207 204 202 199 193 190 191 200 186 188 196 200 184 198 177 199 189 172 187 193 183 200 208 182 162 173 192 190 200 200 201 198 203 211 216 214 217 225 234 240 245 251 255 254 253 255
235 233 229 228 230 231 231 220 205 202 198 215 218 216 217 220 227 232 222 217 221 222 224 223 221 216 209 205 206 206 202 199 188 189 201 196 184 198 196 192 195 187 186 194 173 161 198 171 180 173 192 139 215 184 181 181 200 205 205 205 209 216 217 216 222 231 239 243 248 255 259 259 255 240
237 238 233 229 229 231 231 220 209 201 200 216 220 218 217 224 228 229 206 218 220 211 218 230 229 228 216 208 208 209 203 200 196 200 202 186 191 198 198 190 172 181 215 197 170 181 191 165 197 152 124 202 275 228 207 188 172 178 192 208 220 226 226 228 226 232 239 245 252 256 259 261 233 225
235 237 240 234 227 230 233 228 214 205 203 214 221 219 222 227 232 223 206 221 221 217 212 220 221 222 217 215 213 211 207 205 201 203 200 193 193 196 195 190 185 194 195 185 176 184 175 174 177 180 160 156 213 245 164 184 174 179 185 195 203 230 229 234 240 240 241 247 250 254 254 258 210 217
236 235 235 240 232 222 224 227 227 216 211 215 220 221 227 227 233 205 215 221 218 223 219 220 222 223 221 219 215 214 210 207 206 205 201 195 196 193 193 192 193 207 202 183 179 172 174 176 167 162 170 161 190 171 227 155 177 179 190 188 202 233 212 222 213 233 237 241 246 250 256 254 219 208
236 237 235 237 232 223 218 218 221 222 219 220 223 230 231 234 227 212 214 212 211 220 221 217 219 220 218 218 216 215 213 210 207 206 201 201 200 199 195 189 187 195 200 189 176 176 151 173 171 170 169 169 217 178 150 223 214 192 191 196 200 217 197 206 191 225 238 238 250 237 233 237 224 211
234 233 233 236 233 226 225 218 220 222 221 217 225 235 238 237 225 230 333 305 239 225 221 218 218 216 215 214 215 214 214 210 205 207 205 203 201 198 198 196 193 190 175 169 183 173 167 163 170 171 174 175 168 186 179 165 234 270 358 246 225 226 214 189 201 221 228 233 245 243 236 246 242 224
231 236 235 234 226 223 224 222 220 221 220 222 225 230 237 231 74 71 234 232 238 237 231 225 222 220 215 211 212 213 210 204 202 207 207 203 198 190 184 183 173 163 162 175 180 175 165 156 173 178 166 167 173 177 190 215 158 153 179 295 288 259 236 177 192 189 226 242 269 271 280 276 267 172
229 227 225 226 225 223 225 226 224 225 227 227 225 227 230 220 172 219 219 226 233 236 235 230 226 224 217 212 211 204 200 201 199 204 205 195 182 166 158 159 158 162 167 172 173 168 168 160 165 156 156 167 175 193 162 178 167 183 173 182 286 279 255 212 156 204 262 278 271 270 253 233 234 188
319 322 309 280 258 242 236 236 234 234 237 232 232 234 234 221 202 210 219 225 229 237 240 238 234 231 224 215 211 201 196 197 202 195 188 177 175 160 153 141 158 169 171 163 163 168 171 157 152 153 157 169 176 170 175 147 177 183 185 198 219 293 268 239 247 241 247 255 257 259 264 204 194 172
277 285 292 303 306 299 300 295 299 303 293 291 269 255 251 238 222 214 215 218 223 232 236 235 234 231 224 204 170 196 204 209 204 191 184 184 182 173 165 156 154 160 172 170 171 171 168 157 150 146 157 167 183 184 175 161 168 174 197 196 173 190 247 213 218 236 220 239 263 264 238 210 212 213
268 271 278 289 289 288 287 276 266 259 262 254 261 255 242 238 233 231 225 226 233 235 237 239 241 250 160 195 197 202 206 204 196 186 186 188 180 172 161 157 169 163 162 174 173 166 152 159 154 154 158 164 186 194 167 168 180 184 197 204 205 222 209 221 243 259 245 232 264 241 229 211 214 245
254 262 272 269 275 266 264 268 265 263 261 255 240 238 236 234 232 232 233 232 235 237 238 241 224 168 175 193 188 200 201 201 194 184 190 191 182 180 175 175 169 170 171 175 168 165 167 162 161 160 166 173 189 170 167 176 207 185 188 203 195 214 222 220 213 241 270 270 236 217 234 248 227 224
215 235 246 250 252 259 253 256 260 260 260 263 258 248 243 243 241 234 232 233 237 236 239 241 220 204 184 182 190 196 199 199 197 192 187 186 178 177 181 176 180 177 170 161 163 166 164 158 146 180 171 190 191 177 175 178 194 191 197 189 188 211 226 222 224 231 228 213 195 195 247 286 277 261
207 243 244 259 256 258 262 259 262 263 261 258 258 256 250 242 239 238 238 239 237 239 244 245 222 198 196 200 195 200 200 197 195 191 189 180 180 184 182 180 173 168 167 167 166 165 158 157 148 170 153 159 194 277 250 193 172 193 178 200 192 205 224 212 213 222 208 213 156 174 235 260 287 275
338 316 301 294 287 287 283 280 281 280 276 275 270 270 265 259 252 247 247 245 242 246 245 234 210 206 207 207 206 203 198 196 194 189 185 184 184 184 181 177 159 165 165 169 167 163 161 159 154 167 183 190 194 213 237 222 192 172 178 205 197 207 218 212 216 203 189 187 182 167 214 250 258 269
301 291 281 282 285 286 287 290 292 292 293 291 289 285 278 273 270 264 261 256 245 242 239 233 225 217 217 212 209 209 203 197 194 188 188 183 180 180 174 169 174 173 175 170 160 160 157 155 169 177 181 184 192 210 221 124 215 208 169 206 210 193 203 207 211 235 220 190 191 173 200 201 244 248
313 277 283 281 279 278 276 279 281 280 279 283 285 286 286 284 284 281 281 276 260 252 245 239 233 222 217 210 207 201 197 195 191 183 184 178 178 178 177 174 175 172 165 163 160 149 157 155 174 188 188 190 192 205 213 231 206 237 210 197 200 200 180 180 199 211 225 209 189 213 181 234 246 243
290 302 299 296 293 289 287 284 280 281 279 279 279 280 283 286 289 292 291 281 270 255 242 233 228 223 219 214 208 200 193 188 185 187 185 182 179 176 172 166 156 143 136 141 145 143 140 168 189 191 192 189 190 199 187 163 208 250 209 196 188 168 179 183 201 203 198 208 238 246 242 241 263 257
284 262 269 273 281 285 284 284 281 277 279 275 274 274 276 279 279 279 279 280 281 274 267 257 254 255 250 232 216 212 203 190 187 182 182 180 177 165 156 154 144 134 138 147 153 161 174 186 192 194 190 193 194 179 160 168 140 67 71 205 194 176 191 168 192 187 214 220 194 179 250 299 246 305
295 298 290 284 283 288 292 295 292 290 283 280 276 274 272 274 277 278 278 275 271 270 267 264 255 248 241 231 227 214 205 197 190 173 150 125 118 127 130 126 120 126 131 141 160 184 200 202 195 183 180 158 119 92 95 109 150 172 171 211 218 216 203 191 193 183 212 192 170 200 221 231 235 275
319 312 306 296 298 300 304 305 305 301 295 291 287 284 280 279 277 280 281 277 275 272 270 267 262 255 240 217 158 84 32 348 179 157 150 140 128 122 116 111 114 128 145 166 186 200 193 172 184 179 156 133 141 155 181 183 182 186 194 221 207 219 227 225 216 204 202 188 164 180 216 278 10 287
325 311 305 302 296 297 298 303 306 309 307 304 300 298 296 293 297 305 307 297 300 331 354 346 18 33 349 210 142 116 103 95 66 42 47 104 118 126 130 137 144 151 161 168 163 169 180 172 165 163 160 158 172 167 179 188 177 171 176 172 211 204 216 225 230 229 229 214 198 199 189 180 136 220
313 310 305 304 310 312 314 317 320 320 313 312 309 314 326 344 1 358 12 14 20 66 69 70 68 71 68 45 29 92 116 118 123 127 128 119 107 105 109 117 128 143 144 159 172 181 181 175 170 158 158 174 164 167 182 160 177 181 182 193 218 222 263 288 216 226 247 254 250 243 235 210 206 207
309 307 311 320 323 323 324 326 335 333 337 338 337 335 6 35 45 52 67 78 75 63 69 77 87 93 100 103 100 82 65 72 94 104 109 108 111 116 121 134 141 150 165 168 164 168 169 170 169 165 167 169 162 169 172 167 172 162 181 177 216 240 234 202 200 233 239 263 239 226 229 231 239 247